Location: Aldenham
(51.6667°N, 0.3500°W)
Time: 01:10:48
(UTC+00:00)

Altair - Pass Details

Date: 21 February 2026
Orbit: 1502 x 1682 km, 47.2° (Epoch: 9 March)

Event Time Altitude Azimuth Distance (km) Brightness Sun altitude
Rises 09:56:19 0° 286° (WNW) 4,703 9.6 21.0°
Reaches altitude 10° 09:59:41 10° 278° (W) 3,741 9.2 21.3°
Maximum altitude 10:07:50 34° 218° (SW) 2,400 9.0 22.1°
Drops below altitude 10° 10:16:14 10° 158° (SSE) 3,854 11.5 22.8°
Sets 10:19:46 0° 150° (SSE) 4,861 11.6 23.1°
